Weather in Markovo

Russia / Amur Oblast     50°32′38″N   127°22′19″E
В апреле 2022 года жителям России запретили посещать сайт meteo.paraplan.net по решению Генеральной прокуратуры. Аудитория сайта уменьшилась в 10 раз. Владельцы сайта не видят смысла в поддержке погодного сервера в таких условиях. Сайт будет закрыт в октябре.
temp.,
°C
wind,
m/s
gust,
m/s
humid.,
%
clouds,
%
prec.,
mm/h
press.,
hPa
HPBL,
m
5 october, wed
wed500:00−1wnw411525 0.0 1021297
03:00−2wnw48580 0.0 1021189
06:00−3wnw36620 0.0 1021108
09:00+2nw58461 0.0 1021766
12:00+5nw583311 0.0 10191918
15:00+6nnw6928100 0.0 10182415
18:00+2nw334467 0.0 102040
21:00−1w35550 0.0 102177
6 october, thu
thu600:00−2wnw35570 0.0 102293
03:00−3w35580 0.0 102281
06:00−2w39534 0.0 1022157
09:00+3w510350 0.0 1021422
12:00+8w57240 0.0 10192006
15:00+9w56235 0.0 10182329
18:00+4wsw33380 0.0 101933
21:00+1wsw33475 0.0 102036
7 october, fri
fri700:000w35485 0.0 102086
03:00−1w22503 0.0 102018
06:00−2wnw22515 0.0 102117
09:00+4wnw34365 0.0 1022294
12:00+9nw342921 0.0 10211550
15:00+9nnw452977 0.0 10201918
18:00+5n3343100 0.0 102233
21:00+3nnw234998 0.0 102434
8 october, sat
sat800:00+3nw1151100 0.0 102511
03:00+2nw2254100 0.0 102514
06:00+1nnw226292 0.0 102748
09:00+2n34505 0.0 1028477
12:00+6nnw45362 0.0 10271263
15:00+7nnw45285 0.0 10261586
18:00+2n33404 0.0 102825
21:000nnw22470 0.0 102911
9 october, sun
sun900:00−1wnw11520 0.0 102910
03:00−2wnw11550 0.0 103010
06:00−3nw22590 0.0 103015
09:00+2n35440 0.0 1030369
12:00+6n33335 0.0 10291263
15:00+7n33295 0.0 10271549
18:00+3n22425 0.0 102811
21:00+1nw11525 0.0 102810